www.pogodaiklimat.ru

Погода и климат >> Архив погоды >> Канада >> Spence bay


ПОГОДА в Spence bay

  • Прогноз погоды в Spence bay
  • Монитор погоды в Spence bay
  • Климат города

АРХИВ ПОГОДЫ в Spence bay

Время (UTC), дата Ветер
(напр.,м/с)
 
Видим.   Явления Облачность Т
(С)
Тd
(С)
f
(%)
Тe
(С)
Тes
(С)
Комфортность P
(гПа)
Po
(гПа)
Тmin
(С)
Tmax
(С)
R
(мм)
R24
(мм)
S
(см)
06 17.05 С 2 24 км 3/0
[As trans Ci fib]
-10.4 -13.5 78 -14 -14 1016.3 1012.7 -15.0 -2.3 27
09 17.05 С 3 24 км ясно -13.0 -16.2 77 -19 -19 1016.5 1012.9
12 17.05 С 2 24 км 1/0
[Ac trans Ci fib]
-11.7 -16.0 70 -15 -13 1016.6 1013.0 -14.2 -2.3 26
15 17.05 Ю 2 24 км 1/0
[]
-10.4 -14.4 72 -14 -7 1016.3 1012.7
18 17.05 Ю 4 24 км 3/0
[Ac trans Ci fib]
-7.8 -11.2 77 -14 -8 1015.7 1012.1 -14.2 -7.6 26
21 17.05 Ю 4 24 км 1/1 600 м
[]
-6.3 -9.0 81 -13 -9 1015.4 1011.8
00 18.05 Ю 4 24 км 1/1 1500 м
[Sc Ac trans Ci fib]
-7.0 -9.9 80 -13 -11 1014.9 1011.3 -14.2 -6.0 26
03 18.05 ЮВ 3 24 км 8/8 1500 м
[]
-9.0 -10.8 87 -14 -14 1014.3 1010.7
06 18.05 Ю 3 24 км 6/4 1500 м
[Sc Ac trans Ci fib]
-10.6 -12.2 88 -16 -16 1013.8 1010.2 -14.2 -6.0
09 18.05 Ю 3 24 км 9/9 1000 м
[]
-9.5 -11.0 89 -15 -15 1013.1 1009.5
12 18.05 ЮВ 3 24 км 8/3 1500 м
[Sc Ac As Ci fib]
-8.6 -10.2 88 -15 -14 1013.1 1009.5 -10.7 -6.0 0.0 26
15 18.05 Ю 4 24 км 6/6 600 м
[]
-6.2 -8.3 85 -13 -11 1012.8 1009.2
18 18.05 Ю 5 24 км {снег} 6/5 600 м
[Sc Ac trans]
-4.1 -6.9 81 -11 -9 1012.4 1008.8 -10.7 -4.0 0.0 26
21 18.05 Ю 5 24 км 5/5 600 м
[]
-2.6 -6.1 77 -9 -7 1012.2 1008.6
00 19.05 ЮЗ 5 24 км 8/6 600 м
[Sc Ac trans]
-2.7 -5.2 83 -9 -9 1012.1 1008.5 -10.7 -2.2 26
03 19.05 Ю 3 24 км 9/9 300 м
[]
-3.1 -4.4 91 -8 -8 1011.3 1007.7
06 19.05 Ю 5 24 км слабый снег 9/9 100 м
[Sc Ac trans]
-3.7 -4.5 94 -11 -11 1009.6 1006.0 -10.7 -2.2 0.0 25
09 19.05 ЮВ 3 24 км 9/9 100 м
[]
-4.5 -5.5 93 -10 -10 1008.2 1004.6
12 19.05 Ю 3 24 км слабый снег {дождь} 9/9 100 м
[Sc]
-3.6 -4.7 92 -9 -9 1007.0 1003.4 -4.6 -2.2 0.0 26
15 19.05 Ю 3 24 км 9/9 100 м
[]
-1.7 -3.1 90 -7 -6 1006.3 1002.7
21 19.05 СВ 9 24 км 9/9 200 м
[]
-0.3 -2.7 84 -8 -8 1009.4 1005.8
00 20.05 СВ 9 24 км {снег} 8/6 200 м
[Sc]
-1.8 -3.7 87 -10 -10 1012.0 1008.4 0.0 26
03 20.05 СВ 8 24 км 10/10 200 м
[]
-3.6 -5.2 89 -12 -12 1014.6 1011.0
09 20.05 СВ 5 24 км 9/9 300 м
[]
-6.8 -8.2 90 -14 -14 1019.0 1015.4
12 20.05 СВ 5 24 км 9/9 100 м
[Sc]
-7.6 -9.0 90 -15 -15 1021.0 1017.4 25
15 20.05 СВ 4 24 км 10/10 100 м
[]
-6.3 -7.8 89 -13 -13 1022.4 1018.8
18 20.05 С 1 24 км {ливн. осадки} 10 баллов -5.5 -7.5 86 -8 -8 1024.5 1020.9 0.0 25
21 20.05 С 3 24 км 10/10 300 м
[]
-4.2 -6.7 83 -9 -9 1025.9 1022.3
00 21.05 С 2 24 км 10/10 300 м
[Cu Sc]
-5.0 -7.1 85 -9 -9 1027.5 1023.9 -4.1 25
15 21.05 В 2 6000 м 10/10 100 м
[]
-6.4 -7.6 91 -10 -10 1032.4 1028.7
18 21.05 Ю 2 9000 м дымка 9/8 100 м
[Frnb]
-4.2 -5.3 92 -9 -7 1032.4 1028.7 25
21 21.05 ЮВ 1 24 км 9/9 100 м
[]
-2.0 -4.4 84 -4 -3 1032.1 1028.4
00 22.05 Ю 4 24 км слабый снег 9/8 200 м
[Sc]
0.0 -1.1 92 -6 -5 1031.2 1027.6 0.0 25
15 22.05 Ю 7 19 км 9/9 200 м
[]
-0.3 -2.2 87 -8 -7 1025.0 1021.4
18 22.05 4800 м слабый снег н/о -0.2 -1.5 91 -8 -7 1023.3 1019.7 0.4 24
21 22.05 ЮЗ 9 24 км 10/10 100 м
[]
+0.3 -1.2 90 -7 -7 1022.6 1019.0
00 23.05 Ю 7 24 км {снег} 10/10 100 м
[St]
-0.2 -1.3 92 -7 -7 1021.1 1017.5 0.0 24
15 23.05 ЮВ 7 24 км 9/9 100 м
[]
+0.6 -2.1 82 -6 -6 1011.2 1007.6
18 23.05 ЮВ 5 24 км 9/4 200 м
[St Ac trans Ci fib]
+1.2 -1.9 80 -5 -3 1009.6 1006.0 24
21 23.05 В 7 24 км 8/8 200 м
[]
+2.2 -1.2 78 -4 -3 1007.6 1004.1
00 24.05 В 6 24 км 9/1 200 м
[Sc Ac trans Ci]
+1.6 -1.1 82 -5 -4 1006.7 1003.2 23

 

Местоположение метеостанции Spence bay (Канада): широта 69.55 долгота -93.58 высота над уровнем моря 28 м.

В архиве по умолчанию представлена погода в Spence bay за последнюю неделю. Архивные данные за месяц целиком и за предыдущие месяцы, начиная с января 2011 года, Вы можете получить, выбрав интересующий диапазон дат из раскрывающегося списка и нажав кнопку "Ввод!".

Внимание! Время в таблицах - всемирное. Для получения местного времени необходимо прибавить поправку, которая в Spence bay равна -6 ч.

Смотрите также архив погоды в соседних городах и на ближайших метеорологических станциях:

Погода в Shepherd Bay (Канада) (81 км)
Погода в Gjoa Haven Climate (Канада) (136 км)
Погода в Kugaaruk climate (Канада) (188 км)
Погода в Pelly Bay (Канада) (198 км)
Погода в Hat Island (Канада) (291 км)
Погода в Back River MAPS (Канада) (405 км)
Погода в Wager Bay (Канада) (444 км)
Погода в Cambridge Bay Gsn (Канада) (454 км)
Погода в Cambridge Bay Arpt (Канада) (454 км)
Погода в Ellice River AWS (Канада) (486 км)

Пояснения к столбцам:

Ветер - указаны скорость ветра в м/с - средняя за 10 мин, порывы в срок и между сроками (в фигурных скобках) и направление, откуда дует ветер: С - северный, СВ - северо-восточный, В - восточный, ЮВ - юго-восточный, Ю - южный, ЮЗ - юго-западный, З - западный, СЗ - северо-западный.
Видимость - горизонтальная дальность видимости в метрах или километрах. При видимости от 1 до 10 км при отсутствии осадков обычно наблюдается дымка, при ухудшении видимости до 1 км и менее - туман. В сухую погоду видимость может ухудшаться дымом, пылью или мглою.
Явления - указаны атмосферные явления, наблюдавшиеся в срок или в последний час перед сроком; фигурными скобками обозначены явления, наблюдавшиеся между сроками (за 1-3 часа до срока); квадратными скобками обозначены град или гололедные отложения с указанием их диаметра в мм.
Облачность - указаны через наклонную черту общая и нижняя облачность в баллах и высота нижней границы облаков в метрах; квадратными скобками обозначены формы облаков: Ci - перистые, Cs - перисто-слоистые, Cc - перисто-кучевые, Ac - высококучевые, As - высокослоистые, Sc - слоисто-кучевые, Ns - слоисто-дождевые, Cu - кучевые, Cb - кучево-дождевые. Подробнее классификацию облаков см. в Атласе облаков (PDF).
T - Температура воздуха - температура, измеренная на высоте 2 м над землей.
Td - Температура точки росы - температура, при понижении до которой содержащийся в воздухе водяной пар достигнет насыщения.
f - Относительная влажность воздуха - влажноcть воздуха, измеренная на высоте 2 м над землей.
Te - Эффективная температура - температура, которую ощущает одетый по сезону человек в тени. Характеристика душности погоды. При расчете учитывается влияние влажности воздуха и скорости ветра на теплоощущения человека.
Tes - Эффективная температура на солнце - температура, которую ощущает человек, с поправкой на солнечный нагрев. Характеристика знойности погоды. Зависит от высоты солнца над горизонтом, облачности и скорости ветра. Ночью, в пасмурную погоду, а также при ветре 12 м/с и более поправка равна нулю.
P - Атмосферное давление - приведенное к уровню моря атмосферное давление.
Po - Атмосферное давление - измеренное на уровне метеостанции атмосферное давление.
Tmin - Минимальная температура - минимум температуры воздуха на высоте 2 м над землей.
Tmax - Максимальная температура - максимум температуры воздуха на высоте 2 м над землей.
R - Количество осадков - Количество выпавших осадков за период времени, мм. При наведении курсора мыши на число - период времени, за который выпало указанное количество осадков.
R24 - Количество осадков - Количество выпавших осадков за 24 часа, мм.
S - Снежный покров - Высота снежного покрова, см. При наведении курсора мыши на число - состояние снежного покрова и степень покрытия местности в баллах.